Zapata, TX

12:57 AM CST on February 23, 2018 (GMT -0600)
Zapata

Weather History for KAPY - May, 2014

Change the Weather History Date:

Thursday, May 8, 2014

  Actual Average (KLRD) Record (KLRD)
Temperature  
Mean Temperature 86 °F -  
Max Temperature 97 °F 90 °F 108 °F (2011)
Min Temperature 75 °F 68 °F 43 °F (1917)
Cooling Degree Days 21    
Growing Degree Days 36 (Base 50)    
Moisture  
Dew Point 70 °F    
Average Humidity 69    
Maximum Humidity 97    
Minimum Humidity 27    
Precipitation  
Precipitation 0.03 in - - ()
Sea Level Pressure  
Sea Level Pressure 29.78 in    
Wind  
Wind Speed 10 mph (SSE)    
Max Wind Speed 18 mph    
Max Gust Speed 25 mph    
Visibility 7 miles    
Events Rain    
Averages and records for this station are not official NWS values.
T = Trace of Precipitation, MM = Missing Value Source: NWS Daily Summary

Daily Weather History Graph

Daily Weather History Graph

Search for Another Location

Airport or City:

Trip Planner

Search our weather history database for the weather conditions in past years. The results will help you decide how hot, cold, wet, or windy it might be!

Date:

Astronomy

May. 08, 2014 Rise Set
Actual Time 6:53 AM CDT 8:13 PM CDT
Civil Twilight 6:28 AM CDT 8:38 PM CDT
Nautical Twilight 5:58 AM CDT 9:08 PM CDT
Astronomical Twilight 5:28 AM CDT 9:39 PM CDT
Moon 2:48 PM CDT (5/8) 2:51 AM CDT (5/8)
Length of Visible Light 14h 10m
Length of Day
13h 20m
Waxing Gibbous, 65% of the Moon is Illuminated
May 8
Waxing Gibbous
May 14
Full
May 21
Last Quarter
May 28
New
Jun 5
First Quarter

Hourly Weather History & Observations

Time (CDT) Temp. Heat Index Dew Point Humidity Pressure Visibility Wind Dir Wind Speed Gust Speed Precip Events Conditions
12:15 AM 78.3 °F - 70.2 °F 76% 29.82 in 7.0 mi SSE 11.5 mph - N/A   Scattered Clouds
12:35 AM 78.1 °F - 70.3 °F 77% 29.82 in 7.0 mi SSE 10.4 mph 16.1 mph N/A   Mostly Cloudy
12:55 AM 78.1 °F - 70.5 °F 77% 29.83 in 7.0 mi SSE 6.9 mph - N/A   Overcast
1:15 AM 77.9 °F - 70.7 °F 78% 29.82 in 7.0 mi SSE 5.8 mph - N/A Rain Light Rain
1:35 AM 76.8 °F - 72.0 °F 85% 29.81 in 5.0 mi SE 8.1 mph - N/A   Drizzle
1:55 AM 76.1 °F - 73.6 °F 92% 29.81 in 5.0 mi SSE 3.5 mph - N/A   Light Drizzle
2:15 AM 76.1 °F - 73.6 °F 92% 29.79 in 5.0 mi SE 6.9 mph - N/A   Light Drizzle
2:35 AM 76.3 °F - 73.4 °F 91% 29.79 in 5.0 mi SE 5.8 mph - N/A   Light Drizzle
2:55 AM 76.1 °F - 73.9 °F 93% 29.79 in 5.0 mi SSE 5.8 mph - N/A   Light Drizzle
3:15 AM 75.7 °F - 73.9 °F 94% 29.79 in 5.0 mi SE 4.6 mph - N/A   Light Drizzle
3:35 AM 75.6 °F - 74.3 °F 96% 29.79 in 5.0 mi SSE 5.8 mph - N/A   Drizzle
3:55 AM 75.4 °F - 74.3 °F 96% 29.78 in 5.0 mi SE 6.9 mph - 0.01 in Rain Light Rain
4:15 AM 75.4 °F - 74.3 °F 96% 29.78 in 4.0 mi SE 5.8 mph - 0.01 in   Light Drizzle
4:35 AM 75.2 °F - 74.3 °F 97% 29.77 in 4.0 mi SE 6.9 mph - 0.01 in   Scattered Clouds
4:55 AM 75.2 °F - 74.3 °F 97% 29.77 in 4.0 mi SE 8.1 mph - 0.01 in Rain Rain
5:15 AM 75.4 °F - 74.5 °F 97% 29.77 in 4.0 mi SSE 6.9 mph - N/A   Light Drizzle
5:35 AM 75.2 °F - 74.3 °F 97% 29.75 in 4.0 mi SE 10.4 mph - N/A Rain Light Rain
5:55 AM 75.2 °F - 74.3 °F 97% 29.76 in 4.0 mi SE 8.1 mph - N/A Rain Light Rain
6:15 AM 75.2 °F - 74.3 °F 97% 29.75 in 4.0 mi SE 9.2 mph - 0.01 in Rain Light Rain
6:35 AM 75.2 °F - 74.3 °F 97% 29.76 in 4.0 mi ESE 6.9 mph - 0.01 in   Mostly Cloudy
6:55 AM 75.4 °F - 74.5 °F 97% 29.75 in 4.0 mi ESE 9.2 mph - 0.01 in Rain Light Rain
7:15 AM 75.4 °F - 74.3 °F 96% 29.75 in 3.0 mi ESE 12.7 mph 18.4 mph N/A   Scattered Clouds
7:35 AM 75.6 °F - 74.3 °F 96% 29.77 in 3.0 mi SE 11.5 mph 16.1 mph N/A   Scattered Clouds
7:55 AM 76.1 °F - 74.3 °F 94% 29.77 in 3.0 mi SE 12.7 mph 20.7 mph N/A   Overcast
8:15 AM 76.1 °F - 74.3 °F 94% 29.77 in 4.0 mi SE 12.7 mph 19.6 mph N/A   Mostly Cloudy
8:35 AM 76.3 °F - 74.3 °F 94% 29.78 in 4.0 mi SE 12.7 mph 17.3 mph N/A   Scattered Clouds
8:55 AM 76.3 °F - 74.3 °F 94% 29.78 in 4.0 mi SE 10.4 mph 16.1 mph N/A   Scattered Clouds
9:15 AM 76.6 °F - 74.3 °F 92% 29.79 in 4.0 mi SSE 10.4 mph - N/A   Scattered Clouds
9:35 AM 77.2 °F - 73.9 °F 90% 29.80 in 4.0 mi SE 9.2 mph 16.1 mph N/A   Clear
9:55 AM 78.1 °F - 73.4 °F 85% 29.81 in 5.0 mi SE 13.8 mph 20.7 mph N/A   Haze
10:15 AM 78.6 °F - 73.6 °F 84% 29.82 in 5.0 mi SSE 10.4 mph 18.4 mph N/A   Haze
10:35 AM 79.0 °F - 73.6 °F 83% 29.82 in 5.0 mi SSE 10.4 mph - N/A   Haze
10:55 AM 80.8 °F 85.6 °F 73.4 °F 78% 29.82 in 5.0 mi SSE 12.7 mph 16.1 mph N/A   Haze
11:15 AM 82.9 °F 88.5 °F 72.9 °F 71% 29.81 in 5.0 mi SSE 12.7 mph 18.4 mph N/A   Haze
11:35 AM 83.7 °F 89.2 °F 72.0 °F 68% 29.81 in 7.0 mi South 13.8 mph 20.7 mph N/A   Scattered Clouds
11:55 AM 85.5 °F 90.4 °F 70.5 °F 61% 29.81 in 7.0 mi SSE 11.5 mph 17.3 mph N/A   Clear
12:15 PM 86.7 °F 91.4 °F 69.8 °F 57% 29.81 in 7.0 mi South 10.4 mph 19.6 mph N/A   Clear
12:35 PM 87.1 °F 91.3 °F 69.1 °F 55% 29.81 in 7.0 mi South 12.7 mph 20.7 mph N/A   Clear
12:55 PM 89.8 °F 93.8 °F 68.5 °F 49% 29.80 in 7.0 mi SSE 11.5 mph 20.7 mph N/A   Clear
1:15 PM 90.9 °F 93.5 °F 66.0 °F 44% 29.80 in 10.0 mi South 13.8 mph 17.3 mph N/A   Clear
1:35 PM 92.1 °F 94.0 °F 64.4 °F 40% 29.79 in 10.0 mi SSE 18.4 mph 25.3 mph N/A   Clear
1:55 PM 92.1 °F 93.6 °F 64.0 °F 39% 29.78 in 10.0 mi SSE 15.0 mph 19.6 mph N/A   Clear
2:15 PM 91.8 °F 93.4 °F 64.4 °F 40% 29.78 in 10.0 mi South 8.1 mph 17.3 mph N/A   Clear
2:35 PM 91.4 °F 92.8 °F 64.0 °F 40% 29.78 in 10.0 mi South 6.9 mph 18.4 mph N/A   Clear
2:55 PM 91.2 °F 91.8 °F 62.1 °F 38% 29.78 in 10.0 mi SSE 12.7 mph 18.4 mph N/A   Clear
3:15 PM 90.7 °F 90.7 °F 61.3 °F 37% 29.77 in 10.0 mi SSE 11.5 mph 17.3 mph N/A   Clear
3:35 PM 90.7 °F 91.0 °F 61.7 °F 38% 29.77 in 10.0 mi South 10.4 mph - N/A   Clear
3:55 PM 90.9 °F 91.6 °F 63.0 °F 39% 29.75 in 10.0 mi South 12.7 mph 17.3 mph N/A   Clear
4:15 PM 92.3 °F 92.3 °F 61.0 °F 35% 29.75 in 10.0 mi SSE 12.7 mph 18.4 mph N/A   Clear
4:35 PM 93.6 °F 94.2 °F 61.7 °F 35% 29.74 in 10.0 mi SSE 11.5 mph - N/A   Clear
4:55 PM 95.9 °F 95.3 °F 58.8 °F 29% 29.73 in 10.0 mi South 12.7 mph 16.1 mph N/A   Clear
5:15 PM 97.0 °F 96.1 °F 57.6 °F 27% 29.73 in 10.0 mi South 11.5 mph 17.3 mph N/A   Clear
5:35 PM 96.4 °F 95.3 °F 57.2 °F 27% 29.72 in 10.0 mi South 6.9 mph 16.1 mph N/A   Clear
5:55 PM 95.9 °F 96.1 °F 60.8 °F 31% 29.73 in 10.0 mi South 10.4 mph 19.6 mph N/A   Clear
6:15 PM 95.4 °F 94.9 °F 59.5 °F 30% 29.73 in 10.0 mi SSE 8.1 mph - N/A   Scattered Clouds
6:35 PM 95.5 °F 94.8 °F 58.1 °F 29% 29.72 in 10.0 mi SSE 10.4 mph - N/A   Clear
6:55 PM 95.0 °F 93.7 °F 57.6 °F 28% 29.72 in 10.0 mi SSE 8.1 mph 17.3 mph N/A   Clear
7:15 PM 92.3 °F 94.3 °F 64.9 °F 40% 29.72 in 10.0 mi SE 16.1 mph 24.2 mph N/A   Scattered Clouds
7:35 PM 90.3 °F 93.4 °F 67.1 °F 46% 29.73 in 10.0 mi SE 11.5 mph 23.0 mph N/A   Clear
7:55 PM 88.3 °F 92.4 °F 68.9 °F 52% 29.73 in 7.0 mi SE 18.4 mph 25.3 mph N/A   Clear
8:15 PM 86.9 °F 92.1 °F 70.7 °F 58% 29.74 in 7.0 mi SE 15.0 mph 23.0 mph N/A   Clear
8:35 PM 86.0 °F 91.1 °F 70.7 °F 60% 29.75 in 7.0 mi SE 10.4 mph 24.2 mph N/A   Clear
8:55 PM 85.3 °F 90.1 °F 70.3 °F 61% 29.76 in 7.0 mi SE 16.1 mph 20.7 mph N/A   Clear
9:15 PM 84.7 °F 89.4 °F 70.3 °F 62% 29.77 in 7.0 mi SE 10.4 mph 18.4 mph N/A   Clear
9:35 PM 83.8 °F 88.1 °F 70.2 °F 63% 29.77 in 7.0 mi SE 9.2 mph - N/A   Clear
9:55 PM 83.5 °F 87.7 °F 70.3 °F 64% 29.78 in 7.0 mi SE 11.5 mph - N/A   Clear
10:15 PM 82.8 °F 87.2 °F 70.7 °F 67% 29.78 in 7.0 mi SE 10.4 mph 16.1 mph N/A   Clear
10:35 PM 82.2 °F 86.9 °F 71.6 °F 70% 29.79 in 7.0 mi SSE 10.4 mph 17.3 mph N/A   Clear
11:15 PM 80.8 °F 85.1 °F 72.3 °F 75% 29.80 in 7.0 mi ESE 8.1 mph - N/A   Clear
11:35 PM 80.1 °F 84.2 °F 73.0 °F 79% 29.80 in 5.0 mi SE 8.1 mph - N/A   Haze
11:55 PM 79.7 °F - 73.4 °F 81% 29.80 in 5.0 mi ESE 6.9 mph - N/A   Haze